Vorticity
nan nan nan nan nan nan nan nan nan nan nan nan nan nan nan nan nan nan nan nan nan nan nan nan nan nan nan nan nan nan nan nan nan nan nan nan nan nan nan nan nan nan nan nan nan nan nan nan nan nan nan nan nan nan nan nan nan nan nan nan nan nan nan nan nan nan nan nan nan
nan 5 6 7 7 7 8 9 10 12 12 12 12 12 12 12 10 8 7 6 6 8 8 10 11 7 4 5 10 14 17 19 19 18 19 19 18 16 12 14 16 14 12 9 5 5 9 8 5 5 7 10 12 11 11 10 9 9 10 5 4 7 10 11 10 10 10 7 nan
nan 4 6 7 6 6 6 9 13 13 11 9 9 11 10 10 11 11 10 10 9 7 6 10 14 10 3 -1 3 8 12 14 16 16 17 19 19 17 13 14 16 14 10 7 6 4 7 7 5 5 7 10 10 10 10 10 9 10 12 7 3 6 9 11 11 10 9 11 nan
nan 5 6 9 8 3 2 8 14 12 7 7 9 9 8 8 10 12 12 12 10 8 8 10 13 13 7 -0 -1 3 7 10 12 12 12 14 14 13 11 11 12 12 10 9 8 6 5 3 3 6 9 11 9 7 7 9 8 8 10 9 6 8 8 9 10 9 10 11 nan
nan 5 7 12 10 2 1 8 12 8 4 5 8 8 8 7 9 11 11 11 11 11 12 11 10 13 12 5 -1 -1 2 6 8 9 9 10 9 9 8 8 8 9 10 11 9 7 6 1 1 6 9 8 6 7 8 10 7 5 5 8 9 9 9 8 9 9 9 9 nan
nan 8 8 12 10 3 1 9 12 5 3 6 9 7 4 5 7 9 9 10 11 12 12 10 9 11 12 9 3 1 0 2 5 8 10 8 6 7 7 7 6 6 7 9 10 9 7 1 -1 5 8 9 10 9 9 7 6 5 4 5 8 8 9 7 7 8 9 8 nan
nan 9 9 11 9 3 3 7 8 6 5 9 12 8 4 3 4 5 5 5 8 9 9 11 10 10 11 9 5 4 2 1 4 7 8 7 8 8 6 6 6 3 4 6 7 7 8 2 -1 5 6 7 11 15 11 4 4 6 6 3 5 9 11 6 3 7 11 10 nan
nan 8 8 10 9 6 6 4 3 4 4 9 15 13 9 4 3 2 1 2 4 5 5 10 12 8 7 7 6 6 5 2 1 3 5 7 10 9 8 7 6 5 4 3 4 5 4 2 3 6 6 6 9 14 15 8 2 3 4 2 2 7 10 9 5 6 10 12 nan
nan 10 9 9 9 8 7 5 3 3 4 8 13 13 10 8 5 1 -1 1 4 5 3 8 12 8 6 5 6 6 6 5 1 0 2 7 9 8 7 8 8 7 5 5 6 5 -0 -1 3 6 6 6 9 12 14 11 5 2 1 3 4 5 7 9 7 6 8 11 nan
nan 11 8 10 11 9 8 6 6 6 5 7 10 9 8 8 7 3 0 3 8 7 4 6 9 8 7 5 5 6 7 7 5 2 0 3 7 7 5 7 9 7 6 6 7 8 2 1 4 5 3 6 10 10 10 10 8 4 -3 2 8 7 4 5 7 7 7 9 nan
nan 9 7 11 14 10 8 6 6 8 7 9 11 9 7 7 7 5 3 6 10 10 6 5 7 6 6 6 7 7 7 7 8 6 3 0 2 4 4 6 8 7 6 4 4 6 5 5 7 7 2 3 9 10 10 9 8 6 -1 -0 7 7 4 2 4 5 7 8 nan
nan 10 8 11 13 9 7 4 6 10 11 11 11 10 9 9 9 6 7 7 9 11 10 9 8 6 4 6 8 7 9 10 9 8 6 2 -0 0 2 5 7 7 6 4 2 3 7 8 8 8 4 -0 3 9 13 11 9 8 5 2 4 6 6 4 2 2 5 9 nan
nan 10 10 12 12 9 6 3 5 11 14 12 10 10 10 13 13 10 10 8 6 8 13 14 12 9 7 7 8 7 8 11 10 8 8 7 3 1 0 4 6 7 6 5 3 3 5 9 9 8 6 0 -1 5 12 13 10 9 8 6 4 4 6 6 4 2 4 6 nan
nan 9 10 12 11 7 6 4 5 12 15 13 9 10 12 14 14 12 11 10 8 8 11 13 13 12 13 10 7 7 6 8 10 9 8 8 6 4 1 3 6 5 4 6 8 7 5 6 9 8 7 4 0 2 6 9 9 9 9 8 6 5 6 7 6 5 6 6 nan
nan 9 9 10 8 5 7 5 4 12 15 13 9 9 10 13 14 13 12 12 9 7 8 9 11 14 16 12 8 6 5 6 8 9 9 10 9 7 3 3 5 4 3 4 8 10 9 8 8 8 8 7 5 3 4 5 7 8 8 9 9 8 7 8 8 7 8 8 nan
nan 9 8 8 6 4 6 3 4 11 13 12 10 8 8 11 14 14 14 10 7 7 9 8 8 11 14 14 11 9 7 8 10 10 11 12 13 10 7 4 5 5 5 4 5 8 10 9 10 10 9 8 8 6 5 5 6 7 7 8 9 10 10 10 10 9 10 10 nan
nan 8 7 7 7 5 4 1 3 9 12 12 9 7 6 8 11 14 14 9 5 8 10 7 4 7 10 13 13 13 12 12 12 13 14 15 14 12 9 6 6 7 8 7 6 6 7 6 8 10 11 10 9 9 8 7 7 9 9 9 9 10 11 11 11 12 13 14 nan
nan 8 7 8 7 6 5 2 3 8 11 10 7 6 5 6 9 11 13 10 7 9 9 6 4 6 10 10 10 12 15 16 14 13 14 15 14 12 10 8 7 8 9 9 8 8 7 6 5 6 9 10 10 10 10 9 9 11 12 11 11 11 11 11 12 13 16 18 nan
nan 8 8 8 8 7 6 5 5 7 9 9 7 7 7 7 7 7 10 11 9 9 9 7 6 8 12 12 8 9 13 18 16 13 12 13 12 12 11 9 8 9 9 9 9 9 8 7 6 5 6 8 9 9 10 10 11 12 13 14 13 13 13 13 13 14 16 17 nan
nan 8 9 9 8 8 7 6 6 6 6 8 11 10 9 8 8 8 9 10 10 10 9 7 7 9 13 15 11 8 6 14 19 16 13 12 13 13 12 11 10 10 9 9 9 9 8 7 7 7 7 8 9 9 9 10 10 12 12 15 17 18 18 17 16 15 14 13 nan
nan 7 9 9 9 9 8 8 7 7 5 8 11 10 8 8 9 11 11 11 11 11 11 8 8 9 11 15 14 9 3 9 18 17 14 14 15 14 13 13 12 10 10 9 10 10 9 9 9 10 10 11 11 11 10 10 11 12 13 16 20 21 21 19 17 14 11 9 nan
nan 7 9 9 10 10 9 9 8 8 8 9 10 10 7 7 8 9 9 11 13 12 11 9 9 10 10 13 14 11 5 7 14 14 14 14 15 14 13 14 15 12 11 11 11 12 11 11 12 12 12 13 13 12 11 10 11 13 15 16 16 17 16 15 13 11 10 8 nan
nan 8 9 11 11 10 9 9 9 9 9 10 11 10 9 8 8 7 6 8 10 9 7 7 10 11 10 11 13 11 8 8 11 11 11 13 14 14 13 15 18 16 13 14 15 15 14 14 15 14 13 13 15 14 13 11 11 12 12 11 9 9 9 9 10 9 9 8 nan
nan 7 6 12 15 11 9 9 9 9 9 10 11 10 10 9 9 8 8 7 7 6 1 1 6 10 10 10 11 11 11 10 9 10 9 10 12 13 12 14 17 17 14 15 18 18 15 15 16 15 13 13 14 15 15 14 12 10 9 7 5 4 5 6 7 8 9 9 nan
nan 7 6 10 13 11 9 9 9 9 9 10 10 10 11 10 10 10 10 9 8 6 3 1 2 5 7 9 11 11 12 12 11 10 10 9 9 10 10 11 13 14 14 17 20 19 15 12 13 13 13 13 14 15 16 16 13 11 10 8 6 5 5 6 6 7 8 7 nan
nan 9 9 10 11 11 10 10 9 9 8 9 9 10 10 10 11 12 11 10 8 7 6 5 3 3 6 8 9 9 10 12 13 12 11 10 9 8 7 8 9 11 13 17 19 18 16 13 12 11 11 13 14 14 14 15 15 12 11 9 8 8 7 6 6 6 6 6 nan
nan 9 10 11 11 11 10 10 10 10 9 8 9 9 9 9 10 13 12 9 8 7 8 8 6 4 7 10 11 9 8 10 13 13 12 11 10 8 7 7 7 9 13 17 17 16 15 14 13 12 11 12 13 13 12 13 14 12 11 10 10 10 9 8 8 7 6 6 nan
nan 7 9 12 13 12 11 10 10 10 9 9 8 8 9 9 9 10 10 9 7 6 7 8 7 6 8 12 13 12 10 9 11 11 11 10 9 8 7 6 7 9 14 17 17 15 15 15 14 14 12 10 10 11 11 11 11 10 10 10 11 11 10 10 9 8 7 6 nan
nan 4 6 12 14 14 12 11 10 10 10 10 9 8 9 9 9 9 8 8 5 3 3 6 8 9 10 12 13 12 10 8 8 9 9 9 7 6 5 5 6 9 13 16 15 14 15 15 15 14 12 8 7 9 10 9 8 8 9 9 10 11 10 9 8 8 8 7 nan
nan 2 4 10 13 12 12 12 11 10 9 11 12 10 8 8 9 8 9 7 4 2 2 6 9 10 11 11 10 10 9 7 7 8 8 7 6 5 4 4 4 8 14 15 13 13 13 14 13 12 11 8 6 8 9 9 9 9 10 10 11 10 9 8 8 8 7 7 nan
nan 3 4 7 9 10 11 11 11 10 8 10 13 11 9 9 9 9 9 7 3 3 7 11 11 10 8 8 8 9 8 7 7 7 7 6 6 5 5 5 4 7 14 16 11 12 12 12 12 11 10 6 4 6 8 9 10 10 12 13 12 10 8 7 7 7 6 6 nan
nan 7 6 6 7 7 8 10 11 11 11 10 10 10 9 8 8 8 9 9 7 7 8 11 11 8 6 6 7 8 8 7 7 7 8 8 8 8 7 7 8 11 17 16 10 11 12 12 11 10 9 6 5 7 9 9 9 11 12 13 12 10 8 7 6 6 6 7 nan
nan 9 9 8 6 5 6 7 10 12 13 12 10 10 9 7 6 7 6 7 10 13 11 11 10 8 7 7 8 9 9 8 8 8 8 9 9 9 8 7 13 19 27 17 7 8 9 10 10 9 8 6 7 10 10 9 9 10 11 11 11 10 8 7 7 8 9 10 nan
nan 10 10 9 8 6 5 5 7 10 12 13 12 11 10 8 8 8 5 4 7 12 13 14 13 10 9 8 10 12 9 9 11 11 10 10 10 9 7 4 8 14 30 24 14 11 8 7 8 8 8 7 9 11 11 10 9 10 10 10 9 8 7 8 10 13 16 18 nan
nan 10 10 10 9 8 6 5 6 7 10 12 12 11 11 12 12 9 6 6 8 10 11 12 13 12 10 11 13 12 10 10 11 11 11 10 10 10 10 5 -4 -7 12 30 32 26 17 9 6 6 5 5 8 11 11 9 8 9 8 7 7 8 10 12 16 19 21 22 nan
nan 9 10 11 12 11 9 7 6 7 8 9 10 10 9 10 12 12 10 9 11 10 9 10 12 12 9 9 11 12 14 12 9 8 9 12 13 13 13 6 -10 -11 -0 27 39 38 30 18 9 4 1 2 7 8 8 7 7 8 8 8 9 11 14 14 13 15 17 18 nan
nan 8 9 12 14 13 12 9 7 7 7 6 8 9 10 9 8 9 11 12 12 11 8 8 11 12 12 10 9 11 17 18 16 15 13 15 19 22 15 7 -3 -2 2 18 32 36 33 25 15 8 3 4 6 7 6 6 7 8 10 11 13 15 15 10 4 4 7 12 nan
nan 7 8 11 13 14 13 11 9 8 7 5 5 7 9 10 8 8 10 12 13 13 9 8 11 14 17 19 16 13 15 25 36 37 29 23 26 30 24 9 3 3 4 12 24 28 29 25 19 15 13 12 9 7 7 7 8 10 11 12 12 13 12 7 1 -1 -1 5 nan
nan 9 9 10 11 12 13 13 11 10 9 6 4 5 5 7 8 8 10 11 12 15 16 18 21 22 23 22 19 16 18 25 38 43 38 28 27 27 21 8 4 4 3 11 21 24 24 21 19 19 19 18 14 12 11 11 11 11 11 10 10 7 6 5 4 1 -4 -6 nan
nan 11 11 11 11 11 12 12 11 10 11 10 8 5 5 6 7 8 7 9 12 15 18 24 31 34 31 22 14 10 10 14 19 22 22 17 14 13 13 8 5 5 3 9 19 23 22 19 18 19 20 17 15 15 15 14 14 13 12 11 9 5 2 3 6 4 -1 -7 nan
nan nan nan nan nan nan nan nan nan nan nan nan nan nan nan nan nan nan nan nan nan nan nan nan nan nan nan nan nan nan nan nan nan nan nan nan nan nan nan nan nan nan nan nan nan nan nan nan nan nan nan nan nan nan nan nan nan nan nan nan nan nan nan nan nan nan nan nan nan
CAPE
7 1 1 nan nan nan 3 0 nan nan nan nan nan nan nan nan 1 0 0 nan nan nan nan 1 11 10 10 7 12 12 22 25 19 nan nan nan 13 11 11 12 0 nan nan nan nan nan 1 nan nan nan nan nan nan nan nan nan nan nan nan nan nan nan nan nan nan nan nan nan nan
6 0 0 nan nan nan 0 nan nan nan nan 1 nan nan nan nan nan nan nan nan nan nan nan 0 2 6 6 3 3 3 17 29 38 12 12 8 13 9 9 9 3 nan nan nan nan nan 1 1 2 2 0 nan nan nan nan nan nan nan nan nan nan nan nan nan nan nan nan nan nan
6 1 1 nan 0 0 3 4 2 2 3 3 3 3 3 3 3 nan nan nan nan nan nan 0 0 0 0 3 3 3 9 24 50 35 35 16 8 4 4 5 1 nan nan nan nan nan 0 2 nan nan nan nan nan nan nan nan nan nan nan nan nan nan nan nan nan nan nan nan nan
3 2 2 2 2 2 3 4 1 1 4 5 6 7 7 7 4 nan nan nan nan nan nan nan nan nan nan nan 1 1 9 0 23 24 24 11 8 2 2 3 0 nan nan nan nan nan nan 4 2 2 nan nan nan nan nan nan nan nan nan nan nan nan nan nan nan nan nan nan nan
6 1 1 1 1 1 2 3 2 2 4 7 8 12 12 11 0 nan nan nan nan nan nan nan nan nan nan nan 1 1 5 0 nan 14 14 3 2 0 0 1 nan nan nan nan nan nan nan 6 13 13 8 1 nan nan nan nan nan nan nan nan nan nan nan nan nan nan nan nan nan
2 3 3 0 1 1 1 4 4 4 7 9 9 11 11 9 nan nan nan nan nan nan nan nan nan nan nan nan nan nan 1 1 nan 6 6 1 nan 0 0 1 nan nan nan nan nan nan 0 12 17 17 14 5 nan nan nan nan nan nan nan nan nan nan nan nan nan nan nan nan nan
4 3 3 2 3 3 3 6 5 5 6 7 4 4 4 1 nan nan nan nan nan nan nan nan nan nan nan nan nan nan nan nan nan 1 1 0 nan nan nan 0 nan nan nan nan nan nan 2 14 19 19 1 nan nan nan nan nan nan nan nan nan nan nan nan nan nan nan nan nan nan
3 2 2 3 3 3 4 5 6 6 4 4 4 2 2 3 1 nan nan nan nan nan nan nan nan nan nan nan nan nan nan nan nan nan nan nan nan nan nan nan nan nan nan nan nan nan 4 13 19 19 7 0 nan nan nan nan nan nan nan nan nan nan nan nan nan nan nan nan nan
4 2 2 2 2 2 2 3 4 4 3 2 3 1 1 3 3 0 0 0 nan nan nan nan nan nan nan nan nan nan nan nan nan nan nan nan nan nan nan nan nan nan nan nan nan nan 2 7 12 12 10 6 4 nan nan nan nan 4 4 0 0 nan nan nan nan nan nan nan nan
4 4 4 4 3 3 0 5 4 4 1 1 0 nan nan nan nan 2 2 0 nan nan nan nan nan nan nan nan nan nan nan nan nan nan nan nan nan nan nan nan 1 2 2 2 1 1 nan 0 6 6 10 7 3 1 1 0 0 2 2 0 0 nan nan nan nan nan nan nan nan
4 5 5 5 3 3 0 7 2 2 nan nan 0 nan nan nan nan nan nan nan nan 0 0 nan nan nan nan nan nan nan nan nan nan nan nan nan nan nan nan nan 4 6 6 8 7 7 4 3 4 4 8 4 3 2 2 0 0 1 1 0 0 0 0 nan nan nan nan nan nan
9 5 5 5 4 4 2 7 3 3 1 2 2 0 0 0 0 nan nan nan nan nan nan nan nan nan nan nan nan nan nan nan nan nan nan nan nan nan nan 0 4 9 9 10 10 10 9 5 5 5 6 4 4 1 1 nan nan nan nan nan nan nan nan nan nan nan nan nan nan
9 5 5 4 5 5 6 6 5 5 3 2 2 0 0 nan nan nan nan nan nan nan nan nan nan nan nan nan nan nan nan nan nan nan nan nan nan nan nan nan 2 9 9 7 6 6 8 6 4 4 6 5 2 nan nan nan nan nan nan nan nan nan nan nan nan nan nan nan nan
16 3 3 3 4 4 4 5 5 5 2 2 2 0 0 nan nan nan nan nan nan nan nan nan nan nan nan nan nan nan nan nan nan nan nan nan nan nan nan nan 0 2 2 3 1 1 2 1 2 2 3 3 nan nan nan nan nan nan nan nan nan nan nan nan nan nan nan nan nan
28 8 8 2 2 2 1 3 3 3 1 2 1 1 1 0 nan nan nan nan nan nan nan nan nan nan nan nan nan nan nan nan nan nan nan nan nan nan nan nan nan 0 0 0 nan nan nan nan 0 0 1 0 nan nan nan nan nan nan nan nan nan nan nan nan nan nan nan nan nan
44 26 26 15 6 6 nan 1 3 3 1 1 1 1 1 1 nan nan nan nan nan nan nan nan nan nan nan nan nan nan nan nan nan nan nan nan nan nan nan nan nan nan nan nan nan nan nan nan nan nan nan nan nan 0 0 1 0 nan nan nan nan nan nan nan nan nan nan nan nan
101 58 58 23 12 12 4 0 1 1 1 0 0 0 0 0 nan nan nan nan nan nan nan nan nan nan nan nan nan nan nan nan nan nan nan nan nan nan nan nan nan nan nan nan nan nan nan nan nan nan nan nan nan 0 0 2 0 nan nan nan nan nan nan nan nan nan nan nan nan
308 247 247 150 95 95 53 17 7 7 2 nan nan nan nan nan nan nan nan nan nan nan nan nan nan nan nan nan nan nan nan nan nan nan nan nan nan nan nan nan nan nan nan nan nan nan nan nan nan nan nan nan nan nan nan 0 0 0 0 2 3 3 3 5 9 9 13 11 nan
334 382 382 296 196 196 100 6 13 13 29 8 nan nan nan nan nan nan nan nan nan nan nan nan nan nan nan nan nan nan nan nan nan nan nan nan nan nan nan nan nan nan nan nan nan nan nan nan nan nan nan nan nan nan nan nan 0 1 1 5 8 14 14 33 22 22 19 8 3
302 407 407 398 311 311 212 132 102 102 65 32 5 1 1 nan nan nan nan nan nan nan nan nan nan nan nan nan nan nan nan nan nan nan nan nan nan nan nan nan nan nan nan nan nan nan nan nan nan nan nan nan nan 0 0 3 13 17 17 15 52 39 39 13 6 6 3 2 2
297 345 345 392 386 386 300 226 184 184 130 98 57 9 9 nan nan nan nan nan nan nan nan nan 0 0 0 0 nan nan nan nan nan nan nan nan nan nan nan nan nan nan nan nan nan nan nan nan nan nan nan nan 1 18 18 27 49 84 84 73 85 37 37 5 2 2 1 0 1
292 311 311 330 351 351 346 317 264 264 176 136 74 38 38 12 nan nan nan nan nan nan nan nan 1 0 0 2 1 1 0 nan nan nan nan nan nan nan nan nan nan nan nan nan nan nan nan nan nan nan nan 3 22 33 33 53 91 100 100 59 51 28 28 9 0 0 nan nan nan
338 332 332 300 269 269 103 263 282 282 208 144 106 76 76 42 3 nan nan nan nan nan nan nan 0 nan nan 3 3 3 2 1 nan nan nan nan nan nan nan nan nan nan nan nan nan nan 0 9 12 12 23 39 52 62 62 77 60 51 51 20 23 19 19 6 nan nan nan nan nan
413 352 352 320 290 290 336 384 298 298 178 134 128 108 108 68 20 nan nan nan nan nan nan nan 0 1 1 2 4 4 3 1 nan nan nan nan nan nan nan 5 2 nan nan 6 nan nan nan nan 63 63 53 57 85 93 93 75 46 25 25 14 8 5 5 nan nan nan nan nan nan
433 345 345 365 334 334 329 376 316 316 188 123 118 131 131 112 39 2 2 nan nan nan nan nan nan 3 3 5 11 11 11 6 1 0 0 0 7 31 31 71 89 135 135 nan nan nan nan nan nan nan 88 113 100 63 63 36 19 16 16 8 1 nan nan nan nan nan nan nan nan
426 391 391 409 376 376 371 339 306 306 200 130 125 120 120 100 38 7 7 nan nan nan nan nan nan nan nan 5 26 26 29 21 23 24 24 27 49 95 95 122 275 600 600 nan nan nan nan nan nan nan nan 193 89 37 37 21 8 8 8 1 nan nan nan nan nan nan nan nan nan
416 408 408 398 417 417 384 326 268 268 213 141 136 110 110 89 30 8 8 nan nan nan nan nan nan nan nan 0 17 17 71 95 118 122 122 127 131 77 77 72 215 296 296 nan nan nan nan nan nan nan nan 69 77 31 31 16 0 nan nan nan nan nan nan nan nan nan nan nan nan
379 371 371 387 378 378 371 312 256 256 204 176 127 85 85 54 24 4 4 nan nan nan nan nan nan nan nan 1 30 30 185 216 176 181 181 185 168 171 171 69 103 nan nan nan nan nan nan nan nan nan nan nan 70 13 13 5 nan nan nan nan nan nan nan nan nan nan nan nan nan
317 359 359 430 369 369 334 301 248 248 220 170 120 77 77 37 13 2 2 nan nan nan nan nan nan 6 6 42 168 168 297 304 213 172 172 175 62 81 81 76 94 nan nan nan nan nan nan nan nan nan nan nan nan 0 0 nan nan nan nan nan nan nan nan nan nan nan nan nan nan
282 374 374 475 414 414 353 295 242 242 168 142 139 93 93 54 21 3 3 nan nan nan nan nan 2 74 74 148 226 226 284 292 248 139 139 82 50 43 43 11 102 nan nan nan nan nan nan nan nan nan nan nan nan nan nan nan nan nan nan nan nan nan nan nan nan nan nan nan nan
249 315 315 439 407 407 374 315 260 260 184 158 157 133 133 68 38 8 8 nan nan nan nan nan 26 124 124 202 212 212 244 204 164 104 104 62 5 17 17 44 73 nan nan nan nan nan nan nan nan nan nan nan nan nan nan nan nan nan nan nan nan nan nan nan nan nan nan nan nan
195 260 260 354 374 374 369 309 278 278 225 199 173 148 148 125 67 26 26 nan nan nan nan nan 54 133 133 212 175 175 184 125 89 79 79 75 45 40 40 36 60 nan nan nan nan nan nan nan nan nan nan nan nan nan nan nan nan nan nan nan nan nan nan nan nan nan nan nan nan
191 211 211 301 370 370 363 279 249 249 220 195 191 186 186 141 85 65 65 0 nan 0 0 24 67 107 107 198 163 163 151 97 37 nan nan 5 59 76 76 24 67 nan nan nan nan nan nan nan nan nan nan nan nan nan nan nan nan nan nan nan nan nan nan nan nan nan nan nan nan
166 187 187 251 293 293 284 253 203 203 161 177 174 168 168 126 87 42 42 0 1 12 12 29 43 60 60 122 127 127 86 1 21 47 47 62 90 63 63 66 153 nan nan nan nan nan nan nan nan nan nan nan nan nan nan nan nan nan nan nan nan nan nan nan nan nan nan nan nan
163 144 144 205 244 244 260 231 204 204 161 159 139 117 117 93 71 54 54 nan nan 49 49 51 42 72 72 102 171 171 139 9 121 115 115 120 113 32 32 51 170 nan nan nan nan nan nan nan nan nan nan nan nan nan nan nan nan nan nan nan nan nan nan nan nan nan nan nan 1
139 122 122 161 220 220 215 209 182 182 159 123 76 71 71 78 56 13 13 nan nan 99 99 85 88 89 89 137 124 124 6 79 97 101 101 132 164 111 111 503 nan nan nan nan nan nan nan nan nan nan nan nan nan nan nan nan nan nan nan nan nan nan nan nan 2 2 4 2 0
98 67 67 101 155 155 191 206 179 179 155 118 116 96 96 105 82 23 23 nan 6 92 92 108 107 122 122 123 112 112 26 140 181 135 135 80 269 636 636 20 0 nan nan nan nan nan nan nan nan nan nan nan nan nan nan nan nan nan nan nan nan nan nan 2 4 4 0 nan nan
76 48 48 77 111 111 185 202 196 196 170 146 159 136 136 114 77 5 5 nan 57 70 70 98 127 141 141 143 150 150 108 94 72 319 319 210 131 nan nan nan nan nan nan nan nan nan nan nan nan nan nan nan nan nan nan nan nan nan nan nan nan 0 0 6 0 0 nan nan nan
104 87 87 86 121 121 157 238 234 234 206 177 168 160 160 118 82 11 11 nan 37 48 48 43 81 79 79 59 913 913 nan nan nan nan nan nan 1 nan nan nan nan nan nan nan nan nan nan nan nan nan nan nan nan nan nan nan nan nan nan nan nan 3 3 4 1 1 0 0 0
133 152 152 172 171 171 211 231 274 274 290 278 220 186 186 139 83 nan nan nan 42 4 4 393 1219 687 687 nan nan nan nan nan nan nan nan nan nan nan nan nan 0 nan nan nan nan nan nan nan nan nan nan nan nan nan nan nan nan nan nan nan 1 6 6 4 1 1 2 1 1
329 355 355 379 355 355 331 330 353 353 421 365 283 243 243 167 nan 7 7 21 311 1235 1235 114 nan nan nan nan nan nan nan 0 nan 1 1 0 nan nan nan nan 0 nan nan nan nan nan nan nan nan nan nan nan nan nan nan nan nan nan nan nan 6 8 8 3 4 4 3 2 0